• In Österreich
  • Länderverzeichnis
  • Für 7 Tage
  • Wassertemperatur
  • Satellitenkarten
  • Wetterkarte
  • News
  • Widgets
  • user-avatar
    Anmelden

    Stündliche Wetter Montana

    Heute, 16 Dezember, Samstag

    Zeit Temperatur Niederschläge Wind Luftdruck Luftfeuchtigkeit
    00:00 +8°C° 0 mm 3 m/S 726 mmHg 76%
    01:00 +8°C° 0 mm 3 m/S 726 mmHg 76%
    02:00 +8°C° 0 mm 3 m/S 725 mmHg 75%
    03:00 +8°C° 0 mm 3 m/S 725 mmHg 75%
    04:00 +8°C° 0 mm 3 m/S 725 mmHg 75%
    05:00 +8°C° 0 mm 3 m/S 724 mmHg 75%
    06:00 +8°C° 0 mm 3 m/S 724 mmHg 75%
    07:00 +8°C° 0 mm 3 m/S 724 mmHg 76%
    08:00 +8°C° 0 mm 3 m/S 724 mmHg 76%
    09:00 +10°C° 0 mm 3 m/S 725 mmHg 72%
    10:00 +11°C° 0 mm 3 m/S 725 mmHg 67%
    11:00 +12°C° 0 mm 3 m/S 726 mmHg 63%
    12:00 +12°C° 0,1 mm 3 m/S 726 mmHg 66%
    13:00 +12°C° 0,1 mm 3 m/S 726 mmHg 69%
    14:00 +11°C° 0,1 mm 3 m/S 726 mmHg 72%
    15:00 +10°C° 0,7 mm 3 m/S 727 mmHg 77%
    16:00 +9°C° 0,7 mm 2 m/S 727 mmHg 83%
    17:00 +8°C° 0,7 mm 2 m/S 727 mmHg 88%
    18:00 +8°C° 1,9 mm 2 m/S 727 mmHg 89%
    19:00 +7°C° 1,9 mm 2 m/S 728 mmHg 90%
    20:00 +8°C° 1,9 mm 1 m/S 728 mmHg 92%
    21:00 +7°C° 2,1 mm 1 m/S 728 mmHg 91%
    22:00 +7°C° 2,1 mm 1 m/S 728 mmHg 91%
    23:00 +7°C° 2,1 mm 1 m/S 729 mmHg 91%

    Morgen, 17 Dezember, Sonntag

    Zeit Temperatur Niederschläge Wind Luftdruck Luftfeuchtigkeit
    00:00 +7°C° 1,4 mm 1 m/S 729 mmHg 91%
    01:00 +7°C° 1,4 mm 1 m/S 729 mmHg 90%
    02:00 +6°C° 1,4 mm 1 m/S 729 mmHg 90%
    03:00 +6°C° 1,1 mm 1 m/S 729 mmHg 90%
    04:00 +6°C° 1,1 mm 1 m/S 729 mmHg 90%
    05:00 +6°C° 1,1 mm 1 m/S 729 mmHg 90%
    06:00 +6°C° 0,5 mm 1 m/S 730 mmHg 90%
    07:00 +6°C° 0,5 mm 1 m/S 730 mmHg 90%
    08:00 +6°C° 0,5 mm 1 m/S 730 mmHg 90%
    09:00 +6°C° 0,7 mm 1 m/S 731 mmHg 89%
    10:00 +6°C° 0,7 mm 1 m/S 731 mmHg 88%
    11:00 +5°C° 0,7 mm 2 m/S 731 mmHg 87%
    12:00 +5°C° 0,6 mm 2 m/S 731 mmHg 86%
    13:00 +5°C° 0,6 mm 2 m/S 731 mmHg 85%
    14:00 +5°C° 0,6 mm 2 m/S 731 mmHg 84%
    15:00 +4°C° 0,1 mm 2 m/S 732 mmHg 84%
    16:00 +4°C° 0,1 mm 2 m/S 732 mmHg 84%
    17:00 +4°C° 0,1 mm 2 m/S 733 mmHg 84%
    18:00 +4°C° 0,1 mm 2 m/S 733 mmHg 84%
    19:00 +3°C° 0,1 mm 2 m/S 734 mmHg 83%
    20:00 +3°C° 0,1 mm 2 m/S 734 mmHg 83%
    21:00 +3°C° 0 mm 2 m/S 735 mmHg 83%
    22:00 +2°C° 0 mm 2 m/S 735 mmHg 83%
    23:00 +2°C° 0 mm 2 m/S 736 mmHg 83%

    übermorgen, 18 Dezember, Montag

    Zeit Temperatur Niederschläge Wind Luftdruck Luftfeuchtigkeit
    00:00 +2°C° 0 mm 2 m/S 736 mmHg 83%
    01:00 +1°C° 0 mm 2 m/S 736 mmHg 83%
    02:00 +1°C° 0 mm 2 m/S 736 mmHg 83%
    03:00 +1°C° 0 mm 2 m/S 736 mmHg 83%
    04:00 +1°C° 0 mm 2 m/S 736 mmHg 83%
    05:00 +1°C° 0 mm 2 m/S 736 mmHg 83%
    06:00 -1°C° 0 mm 2 m/S 737 mmHg 83%
    07:00 -1°C° 0 mm 2 m/S 737 mmHg 83%
    08:00 -1°C° 0 mm 2 m/S 737 mmHg 83%
    09:00 0°C° 0 mm 3 m/S 738 mmHg 78%
    10:00 +1°C° 0 mm 3 m/S 738 mmHg 74%
    11:00 +1°C° 0 mm 3 m/S 738 mmHg 70%
    12:00 +1°C° 0,1 mm 3 m/S 738 mmHg 69%
    13:00 0°C° 0,1 mm 4 m/S 737 mmHg 69%
    14:00 +1°C° 0,1 mm 4 m/S 737 mmHg 69%
    15:00 +1°C° 0,1 mm 3 m/S 737 mmHg 71%
    16:00 0°C° 0,1 mm 3 m/S 737 mmHg 73%
    17:00 0°C° 0,1 mm 3 m/S 737 mmHg 75%
    18:00 0°C° 0,1 mm 3 m/S 737 mmHg 76%
    19:00 -1°C° 0,1 mm 3 m/S 738 mmHg 77%
    20:00 -1°C° 0,1 mm 3 m/S 738 mmHg 79%
    21:00 -2°C° 0 mm 3 m/S 738 mmHg 79%
    22:00 -2°C° 0 mm 2 m/S 739 mmHg 79%
    23:00 -2°C° 0 mm 2 m/S 739 mmHg 79%

    19 Dezember, Dienstag

    Zeit Temperatur Niederschläge Wind Luftdruck Luftfeuchtigkeit
    00:00 -3°C° 0 mm 2 m/S 739 mmHg 79%
    01:00 -3°C° 0 mm 2 m/S 740 mmHg 79%
    02:00 -3°C° 0 mm 2 m/S 740 mmHg 79%
    03:00 -3°C° 0 mm 2 m/S 740 mmHg 79%
    04:00 -3°C° 0 mm 2 m/S 740 mmHg 79%
    05:00 -2°C° 0 mm 2 m/S 741 mmHg 79%
    06:00 -2°C° 0,1 mm 2 m/S 741 mmHg 79%
    07:00 -2°C° 0,1 mm 2 m/S 742 mmHg 79%
    08:00 -2°C° 0,1 mm 2 m/S 742 mmHg 80%
    09:00 -2°C° 0,2 mm 2 m/S 743 mmHg 80%
    10:00 -1°C° 0,2 mm 3 m/S 743 mmHg 80%
    11:00 -1°C° 0,2 mm 3 m/S 743 mmHg 80%
    12:00 -1°C° 0,1 mm 3 m/S 743 mmHg 80%
    13:00 0°C° 0,1 mm 3 m/S 743 mmHg 79%
    14:00 0°C° 0,1 mm 3 m/S 744 mmHg 79%
    15:00 -1°C° 0,1 mm 3 m/S 744 mmHg 81%
    16:00 -1°C° 0,1 mm 2 m/S 744 mmHg 84%
    17:00 -1°C° 0,1 mm 2 m/S 744 mmHg 86%
    18:00 -2°C° 0 mm 2 m/S 745 mmHg 87%
    19:00 0°C° 0 mm 1 m/S 745 mmHg 88%
    20:00 0°C° 0 mm 1 m/S 745 mmHg 88%
    21:00 0°C° 0 mm 1 m/S 746 mmHg 88%
    22:00 0°C° 0 mm 1 m/S 746 mmHg 87%
    23:00 -1°C° 0 mm 1 m/S 746 mmHg 87%

    20 Dezember, Mittwoch

    Zeit Temperatur Niederschläge Wind Luftdruck Luftfeuchtigkeit
    00:00 -1°C° 0 mm 1 m/S 746 mmHg 86%
    01:00 -1°C° 0 mm 1 m/S 746 mmHg 86%
    02:00 -1°C° 0 mm 1 m/S 745 mmHg 85%
    03:00 -1°C° 0 mm 1 m/S 745 mmHg 85%
    04:00 -2°C° 0 mm 1 m/S 745 mmHg 85%
    05:00 -2°C° 0 mm 1 m/S 745 mmHg 84%
    06:00 -2°C° 0 mm 1 m/S 745 mmHg 84%
    07:00 -2°C° 0 mm 1 m/S 745 mmHg 83%
    08:00 -2°C° 0 mm 1 m/S 745 mmHg 82%
    09:00 -1°C° 0 mm 1 m/S 745 mmHg 77%
    10:00 0°C° 0 mm 1 m/S 745 mmHg 72%
    11:00 +1°C° 0 mm 1 m/S 745 mmHg 67%
    12:00 +1°C° 0 mm 1 m/S 745 mmHg 65%
    13:00 +1°C° 0 mm 2 m/S 744 mmHg 64%
    14:00 +1°C° 0 mm 2 m/S 744 mmHg 62%
    15:00 +1°C° 0 mm 1 m/S 744 mmHg 67%
    16:00 0°C° 0 mm 1 m/S 744 mmHg 72%
    17:00 -1°C° 0 mm 1 m/S 744 mmHg 77%
    18:00 -1°C° 0 mm 1 m/S 745 mmHg 78%
    19:00 -1°C° 0 mm 1 m/S 745 mmHg 79%
    20:00 -2°C° 0 mm 1 m/S 745 mmHg 80%
    21:00 -2°C° 0 mm 1 m/S 745 mmHg 80%
    22:00 -2°C° 0 mm 1 m/S 745 mmHg 81%
    23:00 -2°C° 0 mm 1 m/S 746 mmHg 81%

    21 Dezember, Donnerstag

    Zeit Temperatur Niederschläge Wind Luftdruck Luftfeuchtigkeit
    00:00 -2°C° 0 mm 1 m/S 745 mmHg 81%
    01:00 -2°C° 0 mm 1 m/S 745 mmHg 82%
    02:00 -2°C° 0 mm 1 m/S 745 mmHg 82%
    03:00 -2°C° 0 mm 1 m/S 745 mmHg 82%
    04:00 -3°C° 0 mm 1 m/S 745 mmHg 82%
    05:00 -3°C° 0 mm 1 m/S 745 mmHg 82%
    06:00 -3°C° 0 mm 1 m/S 745 mmHg 82%
    07:00 -3°C° 0 mm 1 m/S 745 mmHg 81%
    08:00 -3°C° 0 mm 1 m/S 745 mmHg 81%
    09:00 -2°C° 0 mm 1 m/S 745 mmHg 77%
    10:00 0°C° 0 mm 1 m/S 745 mmHg 72%
    11:00 +1°C° 0 mm 1 m/S 745 mmHg 68%
    12:00 +1°C° 0 mm 2 m/S 745 mmHg 66%
    13:00 +1°C° 0 mm 2 m/S 744 mmHg 64%
    14:00 +2°C° 0 mm 2 m/S 744 mmHg 62%
    15:00 +1°C° 0 mm 2 m/S 744 mmHg 67%
    16:00 -1°C° 0 mm 2 m/S 743 mmHg 72%
    17:00 -2°C° 0 mm 2 m/S 743 mmHg 76%
    18:00 -1°C° 0 mm 2 m/S 743 mmHg 77%
    19:00 -1°C° 0 mm 2 m/S 743 mmHg 78%
    20:00 -1°C° 0 mm 2 m/S 743 mmHg 80%
    21:00 -1°C° 0,1 mm 2 m/S 743 mmHg 81%
    22:00 +1°C° 0,1 mm 2 m/S 743 mmHg 82%
    23:00 +1°C° 0,1 mm 2 m/S 742 mmHg 82%
    Mehr zeigen